This is the latest recevied weather packets stored in our database for station/object S56IAR-13. If no packets are shown the sender has not sent any weather packets the latest 10 day(s).
| Time | Temp. | Humidity | Pressure | Rain* | Wind** | Luminosity | Snow |
|---|---|---|---|---|---|---|---|
| 1777535703 | 6.67° C | 63% | 973.1 hPa | 0 mm | - | 543 W/m² | - |
| 1777534505 | 6.11° C | 66% | 973 hPa | 0 mm | - | 507 W/m² | - |
| 1777533005 | 3.33° C | 80% | 973.2 hPa | 0 mm | - | 55 W/m² | - |
| 1777532703 | 2.78° C | 92% | 972.9 hPa | 0 mm | - | 50 W/m² | - |
| 1777531203 | 1.67° C | 99% | 972.7 hPa | 0 mm | - | 43 W/m² | - |
| 1777530905 | 1.67° C | 99% | 972.9 hPa | 0 mm | - | 41 W/m² | - |
| 1777529703 | 1.11° C | 99% | 973 hPa | 0 mm | - | 39 W/m² | - |
| 1777529405 | 1.11° C | 99% | 973.1 hPa | 0 mm | - | 39 W/m² | - |
| 1777526105 | 0° C | 99% | 972.7 hPa | 0 mm | - | 31 W/m² | - |
| 1777523705 | -0.56° C | 99% | 972.4 hPa | 0 mm | - | 20 W/m² | - |
| 1777523104 | -0.56° C | 99% | 972.3 hPa | 0 mm | - | 16 W/m² | - |
| 1777521305 | -0.56° C | 99% | 972.1 hPa | 0 mm | - | 3 W/m² | - |
| 1777520704 | 0° C | 99% | 972.2 hPa | 0 mm | - | 1 W/m² | - |
| 1777519334 | 0° C | 99% | 972 hPa | 0 mm | - | 0 W/m² | - |
| 1777517704 | 0.56° C | 99% | 971.9 hPa | 0 mm | - | 0 W/m² | - |
| 1777516203 | 0.56° C | 99% | 972.1 hPa | 0 mm | - | 0 W/m² | - |
| 1777515903 | 0.56° C | 99% | 972 hPa | 0 mm | - | 0 W/m² | - |
| 1777515433 | 1.11° C | 99% | 972.1 hPa | 0 mm | - | 0 W/m² | - |
| 1777511705 | 2.22° C | 99% | 971.9 hPa | 0 mm | - | 0 W/m² | - |
| 1777510635 | 2.22° C | 99% | 971.5 hPa | 0 mm | - | 0 W/m² | - |
| 1777508104 | 3.33° C | 99% | 971.7 hPa | 0 mm | - | 0 W/m² | - |
| 1777502705 | 3.89° C | 99% | 970.7 hPa | 0 mm | - | 0 W/m² | - |
| 1777502105 | 3.89° C | 99% | 970.5 hPa | 0 mm | - | 0 W/m² | - |
| 1777500305 | 4.44° C | 99% | 970.2 hPa | 0 mm | - | 0 W/m² | - |
| 1777497734 | 5° C | 99% | 970 hPa | 0 mm | - | 0 W/m² | - |
* Rain latest hour (hover to see other rain measurements)
** Current wind speed in m/s (hover to see current wind gust speed)